Regional Weather Roundup
Issued by NWS

Home | Current Version | Previous Version | Text Only | Print | Product List | Glossary Off
Versions: 1 2 3 4 5 6 7 8 9 10 11 12 13 14 15 16 17 18 19 20 21 22 23 24 25 26 27 28 29 30 31 32 33 34 35 36 37 38 39 40 41 42 43 44 45 46 47 48 49 50

000
ASUS43 KBIS 030002
RWRND

NORTH DAKOTA REGIONAL WEATHER ROUNDUP
NATIONAL WEATHER SERVICE BISMARCK ND
600 PM CST FRI DEC 02 2016

NOTE: "FAIR" INDICATES FEW OR NO CLOUDS BELOW 12,000 FEET WITH NO
SIGNIFICANT WEATHER AND/OR OBSTRUCTIONS TO VISIBILITY.


NDZ001>003-009>011-017-030100-
NORTHWEST NORTH DAKOTA

CITY           SKY/WX    TMP DP  RH WIND       PRES   REMARKS
WILLISTON      MOCLDY    29  24  82 S6        30.12F
6HR MIN TEMP:  28; 6HR MAX TEMP:  31;

MINOT          CLOUDY    28  24  85 SE8       30.17S WCI  20
MINOT AFB      CLOUDY    28  24  86 S10       30.16S WCI  18
$$

NDZ018>021-031>035-040>046-030100-
SOUTHWEST NORTH DAKOTA

CITY           SKY/WX    TMP DP  RH WIND       PRES   REMARKS
BISMARCK       CLOUDY    24  20  84 S6        30.24S WCI  17
6HR MIN TEMP:  24; 6HR MAX TEMP:  27;

DICKINSON      CLOUDY    29  25  85 S8        30.13S
GARRISON         N/A     27  24  89 S13       30.17F WCI  16
6HR MIN TEMP:  27; 6HR MAX TEMP:  28;

HETTINGER ARPT CLOUDY    28  25  88 S3        30.18R
$$

NDZ004>008-012>016-024-026-027-054-030100-
NORTHEAST NORTH DAKOTA

CITY           SKY/WX    TMP DP  RH WIND       PRES   REMARKS
GRAND FORKS    CLOUDY    32  22  66 CALM      30.27R
GRND FRKS AFB  CLOUDY    31  22  69 W5        30.26S
DEVILS LAKE    CLOUDY    27  20  75 SW8       30.24S WCI  19
$$

NDZ022-023-025-028>030-036>039-047>053-030100-
SOUTHEAST NORTH DAKOTA

CITY           SKY/WX    TMP DP  RH WIND       PRES   REMARKS
FARGO          CLOUDY    30  20  66 W7        30.30R
6HR MIN TEMP:  30; 6HR MAX TEMP:  31;

JAMESTOWN      CLOUDY    25  18  74 SW5       30.26S WCI  19
$$





USA.gov is the U.S. government's official web portal to all federal, state and local government web resources and services.